ECMWFFLT2_250_rhum_192.txt.gz
RH
99 98 96 94 94 90 84 77 72 66 60 56 57 62 71 76 76 75 71 62 52 43 40 40 39 40 42 43 43 42 41 49 64 73 78 80 79 77 73 67 56 43 35 33 33 34 35 35 34 31 27 25
89 88 86 86 87 85 81 75 69 64 60 58 56 54 53 55 56 58 59 58 55 49 46 43 40 39 38 38 38 37 36 38 43 48 52 54 55 53 49 43 38 35 35 37 38 41 40 36 31 28 27 28
73 71 65 62 62 61 58 56 53 51 49 48 49 52 52 53 54 53 53 53 52 49 46 43 41 39 38 37 35 36 37 38 40 41 41 40 40 39 38 37 37 38 41 43 45 43 38 33 30 30 30 30
56 59 56 49 44 42 42 44 46 48 46 45 43 43 45 46 47 48 48 47 47 48 48 47 46 46 46 46 45 46 47 49 50 50 48 46 44 42 41 41 44 46 48 48 45 39 35 35 36 36 36 36
62 63 64 60 54 46 43 42 44 47 47 48 50 50 51 51 50 49 47 48 49 51 53 56 59 59 58 56 54 52 50 50 50 50 50 49 49 49 50 51 53 53 50 45 41 40 42 46 47 47 49 53
85 83 82 84 83 78 74 66 59 60 62 58 55 57 59 57 56 52 49 52 55 55 56 58 62 63 63 60 58 55 52 51 51 51 50 51 51 52 52 52 52 50 47 46 49 55 58 62 66 69 70 72
98 98 95 94 94 92 94 92 85 84 88 84 76 69 66 64 61 56 51 52 56 56 55 55 55 54 54 53 51 50 48 47 46 46 47 49 51 52 54 56 59 60 62 66 72 78 82 86 89 89 86 83
101 102 101 100 98 95 94 96 94 90 89 92 94 92 89 88 83 76 69 64 65 67 66 65 63 61 59 57 55 53 52 52 54 59 64 69 72 76 80 82 85 88 90 92 95 98 99 98 96 91 84 79
96 99 101 102 102 102 100 99 99 96 90 85 86 90 94 99 98 96 95 92 90 89 88 87 86 85 84 83 81 78 78 80 84 89 92 96 98 99 99 97 96 98 100 99 97 96 94 91 88 84 80 76
87 88 92 95 98 103 103 101 101 101 100 95 91 89 90 91 87 83 87 93 98 100 100 101 101 101 100 101 100 99 101 100 99 98 97 98 95 92 88 86 86 87 88 88 87 85 83 80 77 76 76 75
82 80 80 79 83 90 94 97 100 100 101 103 101 98 97 96 90 79 73 74 79 86 91 94 98 100 98 97 93 93 94 92 90 87 85 83 80 76 74 73 75 77 79 80 79 77 74 70 68 67 67 67
75 74 74 71 69 73 78 84 90 94 96 98 99 99 99 100 99 96 91 86 82 82 83 82 82 84 86 85 80 77 77 78 79 78 78 79 79 79 78 78 78 77 77 75 73 70 67 64 62 61 59 59
67 66 66 66 65 66 69 71 76 82 86 90 92 92 93 94 94 95 97 97 95 94 93 92 89 89 89 90 89 87 87 88 87 86 85 86 86 87 85 83 79 75 72 69 65 61 58 57 56 55 54 52
68 64 60 59 59 61 61 60 62 67 72 78 83 83 84 85 85 86 87 88 88 87 86 87 89 90 90 92 93 92 92 92 90 88 88 87 85 82 79 76 73 69 67 65 61 55 51 49 48 48 47 47
66 65 62 59 57 56 56 54 53 54 56 60 64 67 70 71 71 72 73 74 74 72 70 69 69 71 72 73 74 72 73 73 73 74 75 76 76 74 73 70 68 65 62 60 58 54 51 48 46 45 44 44
47 52 54 54 54 52 51 50 49 48 48 48 49 51 54 56 58 60 61 63 64 63 62 61 59 58 57 57 57 56 57 57 58 60 61 63 65 67 67 66 64 62 59 57 54 51 49 47 46 44 43 43
28 30 33 35 37 38 38 38 38 39 39 40 42 43 44 46 48 50 52 54 56 57 56 56 55 54 53 52 51 51 51 51 52 54 55 55 55 56 58 58 58 57 56 53 50 49 47 45 43 41 40 39
23 23 23 24 25 26 26 27 28 28 29 31 32 34 35 37 38 40 41 43 45 46 47 48 48 48 48 48 48 48 48 49 49 50 50 50 50 49 50 50 50 50 49 48 47 45 42 40 38 36 35 34
24 23 22 23 23 23 23 23 23 24 24 25 25 26 27 27 28 30 31 32 33 34 35 36 37 38 39 40 41 42 42 43 44 44 44 44 44 43 43 43 42 42 41 39 38 36 34 32 30 29 28 27
25 24 24 23 22 23 23 23 24 23 24 24 24 24 24 24 24 24 24 24 24 25 26 26 27 28 29 30 31 31 33 33 34 34 35 35 35 34 34 33 33 32 30 29 28 27 25 24 23 22 21 20
27 25 24 23 23 23 22 23 23 23 23 24 24 24 24 24 24 24 23 23 23 22 22 22 22 22 23 23 23 24 25 25 25 26 26 26 26 26 25 25 24 24 23 22 21 21 20 19 19 18 18 18
28 27 26 24 23 23 23 23 23 24 24 24 25 25 26 26 26 26 25 25 24 23 23 23 22 22 22 22 22 22 22 22 22 22 22 22 22 22 22 22 21 21 20 20 19 19 19 18 18 18 18 18
28 28 28 28 28 27 27 26 26 26 25 25 25 25 26 26 26 25 25 25 25 25 24 24 24 24 24 24 24 24 24 24 24 23 23 23 23 22 22 22 21 21 20 20 20 20 20 19 19 19 18 18
26 26 27 28 29 29 29 29 28 27 26 26 25 25 26 26 26 26 26 26 26 26 26 26 25 25 25 25 25 26 26 26 25 25 25 25 25 24 24 23 23 22 21 21 21 21 20 19 19 18 18 18
25 25 25 26 27 27 27 28 28 28 27 27 27 27 27 27 28 28 28 28 28 28 28 27 27 26 26 26 26 26 26 26 26 26 26 26 26 25 25 24 24 23 22 22 21 21 21 20 21 21 22 22
25 25 25 25 25 26 27 27 27 28 28 27 28 27 27 27 27 27 27 27 27 27 27 27 26 26 26 26 26 26 26 26 26 25 25 25 25 24 24 24 24 23 23 23 23 23 25 26 27 27 28 29
30 29 29 28 29 29 29 29 29 30 29 29 29 29 29 28 28 28 28 28 28 28 28 28 28 27 27 28 28 28 28 28 27 27 27 27 27 27 28 29 28 27 27 28 29 29 30 31 32 32 32 33
36 36 35 35 34 34 34 34 33 33 33 32 32 32 32 32 32 31 31 32 32 31 32 32 31 31 32 32 32 32 33 34 33 33 33 33 33 33 35 36 36 34 33 33 33 33 33 33 33 35 35 35
37 37 37 37 36 36 35 35 35 35 35 35 35 35 36 36 36 36 36 36 36 36 36 36 36 36 36 36 36 37 39 40 39 39 39 38 38 39 41 42 42 39 36 36 34 33 34 34 35 38 38 38
36 36 36 36 36 36 36 36 36 36 36 36 37 37 37 37 37 38 38 39 38 39 38 39 40 40 41 41 41 41 42 43 43 42 42 41 41 42 42 42 44 43 39 36 34 34 35 35 37 40 40 42
35 35 35 35 36 36 36 37 37 36 36 37 37 37 38 39 40 41 42 42 42 42 42 43 43 44 44 44 44 43 44 44 44 44 43 42 42 43 42 41 44 46 41 38 37 36 36 37 38 40 41 44

ECMWFFLT2_250_rhum_198.txt.gz
RH
90 101 87 59 62 81 92 92 89 93 93 93 89 80 72 67 65 65 77 91 90 81 73 66 59 53 56 65 68 65 54 40 47 56 49 43 38 34 34 36 40 43 44 41 39 40 37 41 56 73 91 97
88 93 90 65 45 49 74 93 91 89 89 87 87 89 88 84 78 68 69 82 93 94 88 78 71 69 70 73 67 60 55 45 46 54 52 49 45 40 36 36 38 39 41 40 38 41 38 34 34 41 57 72
94 87 81 70 49 34 55 88 92 84 83 80 77 77 79 82 83 83 84 87 95 102 101 94 85 82 80 75 67 58 52 45 44 47 46 44 47 49 44 39 38 39 41 43 45 45 41 36 33 33 39 50
95 85 68 55 46 37 49 83 98 89 80 74 69 67 65 63 59 60 71 80 85 90 92 89 81 74 70 66 62 57 51 45 41 40 40 38 42 54 58 52 47 43 41 45 50 50 45 40 37 39 45 51
90 91 75 55 48 43 44 68 94 100 95 84 73 66 59 54 46 38 45 62 75 83 84 81 75 69 66 64 60 54 47 42 38 36 36 35 38 53 65 62 56 49 45 49 54 52 51 52 52 52 54 56
54 74 79 72 64 56 47 53 70 82 86 81 72 63 56 51 44 36 38 50 63 74 80 79 75 71 69 66 59 50 43 39 37 35 34 35 40 55 68 66 59 52 46 47 51 51 50 54 58 60 59 57
18 29 42 54 64 69 64 58 59 66 69 67 61 57 57 57 51 44 44 48 54 61 68 71 70 68 69 65 57 47 40 36 36 36 34 35 42 58 74 74 64 58 53 49 48 49 51 54 59 61 57 51
13 13 15 22 34 49 62 68 70 73 79 80 77 75 75 73 65 55 50 49 50 54 58 60 62 64 64 60 52 43 36 35 37 39 37 35 39 52 72 82 78 70 64 58 54 53 53 52 52 50 45 37
15 14 15 17 19 24 33 45 56 65 77 83 84 86 91 93 87 76 65 57 51 48 46 47 50 54 55 51 45 39 37 38 42 45 44 39 36 39 53 73 81 79 73 66 59 52 46 40 36 33 31 28
21 18 16 17 20 24 26 28 32 38 45 51 53 57 70 85 95 95 91 87 78 65 58 57 60 61 58 52 45 43 47 53 58 60 58 51 43 36 35 43 51 55 56 53 47 40 34 29 26 25 25 24
26 25 22 20 20 23 29 34 36 36 36 37 39 44 53 65 77 88 96 102 101 93 87 84 83 84 80 72 66 64 69 74 74 71 67 62 55 49 45 42 40 40 39 38 36 33 30 28 28 28 28 29
30 29 28 26 24 23 26 31 38 43 46 47 48 51 55 59 65 73 81 90 97 98 95 90 82 80 80 79 78 78 80 79 74 69 65 64 63 61 59 58 56 54 51 47 45 43 42 41 42 43 44 44
33 33 33 32 30 28 27 28 32 38 44 49 54 57 60 63 66 69 73 76 82 87 90 88 81 74 70 68 67 68 67 65 61 58 59 60 62 64 64 65 67 67 66 64 63 62 61 61 61 62 63 63
38 37 36 36 35 33 31 30 30 31 34 38 44 50 57 63 67 72 74 74 75 77 81 83 82 79 76 72 69 67 64 60 58 57 57 58 60 62 64 67 69 71 73 74 76 77 77 78 78 80 81 82
41 40 38 37 37 36 35 34 33 32 32 32 33 36 41 48 55 62 68 72 74 75 77 78 79 80 79 77 76 75 73 71 70 69 68 68 68 69 71 72 73 75 77 79 82 84 85 86 86 87 89 90
39 38 37 36 36 36 36 36 35 34 34 33 33 33 33 35 38 42 47 53 57 62 67 71 76 79 80 81 82 82 83 83 82 81 80 80 81 82 83 84 84 84 84 85 86 86 86 85 84 83 82 82
36 36 36 35 35 35 36 37 37 37 36 35 35 34 34 33 33 33 34 36 38 40 42 46 52 57 63 69 74 78 82 85 86 86 86 86 87 88 89 89 89 88 87 86 85 83 82 79 78 76 74 73
32 33 34 35 35 35 36 36 37 37 37 37 36 35 35 34 34 34 33 33 33 32 32 32 32 34 37 41 46 53 59 65 71 75 78 80 82 83 83 83 82 81 80 80 79 77 76 74 72 71 70 69
29 29 30 31 32 34 35 35 36 37 37 37 36 36 35 34 34 34 33 32 31 31 31 31 31 30 29 29 28 30 33 37 42 48 53 58 62 65 66 68 68 69 69 70 70 70 69 67 66 64 62 61
28 27 27 27 28 29 31 32 33 34 35 35 35 35 35 34 33 33 33 32 30 29 29 28 29 30 30 31 30 28 27 26 26 27 30 33 36 39 41 44 46 47 49 50 51 51 51 49 48 45 43 41
28 26 25 24 24 25 26 28 30 31 31 31 32 32 32 32 32 32 31 31 31 30 29 28 27 27 28 30 31 32 32 31 30 29 27 27 26 27 27 28 28 29 30 30 31 30 30 29 28 27 26 25
28 26 25 23 22 22 22 23 25 26 27 27 27 27 27 28 29 30 30 29 29 29 29 29 28 28 27 28 29 30 31 32 33 33 32 32 30 29 28 28 27 26 26 26 25 25 25 24 24 24 23 23
27 25 24 23 22 22 21 21 22 23 24 24 25 24 24 24 25 26 27 27 27 27 27 27 27 27 27 27 27 28 29 29 30 31 32 33 33 33 32 31 30 29 29 28 28 27 27 27 27 27 26 26
24 24 23 23 22 22 21 21 21 21 22 23 23 23 23 23 23 24 25 25 25 25 25 25 25 25 25 26 26 27 27 28 29 30 31 32 32 33 33 33 33 32 32 31 31 31 30 30 29 29 29 28
24 24 24 23 23 23 23 23 24 23 24 23 23 23 23 23 24 24 25 25 25 25 25 24 24 25 25 25 25 26 26 27 28 29 30 31 31 32 32 33 33 33 33 32 32 32 32 31 31 30 30 29
26 26 26 26 25 25 26 26 26 26 26 25 25 25 25 25 25 25 25 25 25 25 25 25 25 25 25 25 26 26 26 26 27 28 29 29 30 30 30 31 31 31 31 31 31 31 30 30 29 29 28 28
29 29 28 27 27 27 27 27 26 26 26 25 25 25 25 25 25 25 25 25 25 24 24 24 24 24 24 24 25 25 25 25 26 26 27 27 28 28 28 28 28 29 29 28 28 28 27 27 26 26 25 25
30 30 30 29 29 28 28 27 27 26 25 25 25 25 25 24 24 24 24 24 24 24 24 24 23 23 23 23 23 23 24 24 24 25 25 25 25 25 25 25 25 25 25 25 25 25 25 24 24 24 23 23
30 31 31 32 32 32 31 31 30 29 29 28 27 27 26 26 25 25 25 24 24 24 24 24 24 24 24 24 23 23 23 24 24 24 24 24 24 24 24 24 24 23 23 23 23 23 23 23 23 23 23 23
28 30 30 32 32 32 32 32 33 33 33 32 32 31 30 30 30 29 29 29 28 28 28 28 28 27 27 27 27 27 26 26 26 26 26 26 26 26 26 26 26 25 25 24 24 24 24 24 25 25 25 26
26 28 28 30 30 31 32 32 33 33 34 34 34 34 33 33 33 33 34 34 33 33 33 33 32 32 32 32 32 31 31 31 30 31 31 30 30 30 30 30 30 29 28 28 28 28 28 28 28 28 28 29

ECMWFFLT2_250_rhum_204.txt.gz
RH
84 89 84 87 91 91 96 97 94 96 97 98 102 103 101 97 95 100 99 96 92 84 81 79 71 64 61 60 58 58 57 49 44 42 42 42 41 40 37 35 32 32 40 50 54 53 51 45 38 34 36 39
60 67 73 75 77 77 78 79 79 79 79 83 90 95 101 104 101 100 99 100 102 101 97 93 85 77 71 68 66 62 62 61 56 51 47 44 44 44 43 42 40 37 36 41 46 48 50 46 39 34 33 33
60 60 67 70 68 67 68 68 67 66 63 61 62 65 74 86 96 102 101 97 95 97 100 102 100 94 90 87 83 74 71 74 72 67 61 55 50 47 46 46 45 44 41 40 42 43 44 43 38 37 36 35
73 69 67 67 65 63 62 61 59 58 56 55 51 47 46 51 62 77 92 99 97 90 85 89 91 86 88 93 94 92 90 92 92 87 80 73 68 65 59 55 52 51 50 48 47 47 46 45 43 42 42 42
71 69 66 63 62 60 57 54 52 50 49 49 48 46 45 45 46 51 62 75 90 97 94 87 78 67 63 68 73 77 82 88 95 100 101 96 90 88 82 73 66 62 60 59 55 53 51 48 45 45 46 46
61 60 57 56 55 53 51 48 46 45 44 43 42 42 42 44 47 53 57 57 65 82 98 102 97 89 77 69 64 61 60 59 63 73 87 99 101 101 98 92 87 82 79 79 76 72 68 62 58 55 54 54
51 50 48 47 47 45 43 42 41 40 39 38 38 39 39 38 39 43 50 56 60 69 81 89 93 96 92 86 77 68 60 49 43 45 52 66 83 97 105 104 101 99 98 97 98 98 92 83 77 72 70 72
44 43 42 41 40 39 39 37 37 36 36 36 36 36 37 37 37 36 36 40 48 58 68 73 75 76 77 80 81 76 68 56 48 47 46 47 58 79 98 106 103 102 102 100 103 106 100 89 78 71 65 62
40 38 37 36 36 35 35 34 34 34 33 34 34 35 35 35 34 34 34 32 33 37 46 56 61 60 59 60 65 68 66 58 50 48 49 48 49 60 76 89 92 90 86 86 93 99 100 98 92 83 71 54
37 35 34 33 32 32 32 32 31 31 31 31 31 31 31 31 31 29 29 30 30 29 31 36 42 44 45 45 45 47 48 47 44 43 46 46 45 47 52 61 69 71 68 67 72 74 77 88 95 90 77 59
34 33 32 31 30 29 28 28 27 27 26 25 25 25 25 25 26 27 26 26 26 27 26 27 29 30 32 33 34 34 34 34 33 35 39 40 40 40 41 45 50 54 56 56 55 54 58 68 80 82 72 57
33 31 29 28 27 26 24 24 23 23 22 21 21 21 22 23 23 24 24 25 25 25 25 25 25 25 25 26 26 27 27 26 26 26 29 31 33 32 33 36 41 47 53 57 59 60 62 66 74 78 73 64
33 31 29 27 25 24 23 22 22 22 22 22 22 22 22 23 24 25 25 25 26 25 25 25 24 23 23 23 23 23 22 21 21 21 21 21 22 22 22 23 25 31 37 43 48 51 55 60 67 74 75 71
34 31 29 28 27 26 25 24 25 24 24 25 25 26 26 26 27 27 28 29 29 28 28 27 27 26 24 24 23 22 21 20 20 19 19 18 17 17 17 17 16 17 19 20 22 24 27 32 38 43 48 49
34 32 31 30 29 29 28 28 28 28 28 28 29 29 30 31 32 32 33 33 33 33 33 32 31 30 29 28 26 25 24 23 22 21 20 19 19 18 17 17 17 16 16 15 15 15 14 15 16 17 19 19
35 34 32 32 31 31 32 32 32 33 33 33 34 36 37 38 39 40 41 40 40 40 39 39 38 37 36 35 33 31 30 28 27 26 25 24 22 22 21 20 19 19 18 18 17 17 16 15 15 14 14 14
39 38 37 36 36 36 37 37 38 38 40 40 40 41 43 45 46 46 47 47 47 47 46 46 45 44 44 43 42 41 39 37 35 33 32 31 29 28 27 26 24 23 22 21 20 20 20 19 19 19 18 18
48 45 44 43 42 42 42 42 43 43 42 43 43 44 45 47 47 48 48 49 49 50 50 50 50 50 49 49 49 49 48 46 45 43 41 39 37 36 34 33 32 30 28 27 25 24 23 23 22 22 22 22
65 58 54 52 51 49 47 46 45 45 44 43 43 44 45 46 46 47 47 48 49 50 50 50 51 51 51 52 52 52 53 53 53 52 51 48 45 42 41 40 39 38 36 34 33 32 31 30 28 27 27 27
86 78 72 68 64 60 56 53 50 48 45 44 43 43 43 44 44 45 46 47 48 49 50 50 50 50 51 51 52 54 55 56 57 56 56 55 52 49 46 45 44 43 42 41 40 39 38 37 36 35 34 33
91 89 85 80 76 72 68 64 60 55 51 48 47 45 44 44 44 44 45 46 47 48 49 49 50 50 50 50 52 54 57 58 59 59 59 58 56 54 51 48 47 45 44 43 42 42 41 39 38 38 37 36
79 82 82 80 77 76 74 72 69 66 62 58 55 53 51 50 49 49 49 49 49 49 50 50 50 50 50 51 52 54 56 59 60 61 61 61 60 58 55 52 50 48 46 45 43 42 40 39 38 37 36 36
68 69 70 69 68 69 69 70 71 70 68 65 63 61 59 59 58 57 56 55 54 54 53 53 53 53 54 55 56 56 57 58 59 59 60 60 60 59 59 56 54 52 50 48 46 44 42 40 39 37 36 35
67 66 65 63 62 61 62 62 63 64 64 64 63 62 61 60 60 59 58 58 58 58 58 57 57 57 57 58 58 59 58 59 58 57 56 55 56 56 56 56 55 54 51 49 48 45 43 41 40 38 36 35
60 61 62 62 62 60 60 59 58 58 58 58 59 58 58 57 57 57 57 57 57 57 57 57 58 58 58 58 58 58 58 58 57 56 54 52 51 51 51 51 51 51 50 48 47 45 43 42 40 39 37 36
48 50 51 53 54 55 56 55 55 55 55 55 55 55 55 54 54 54 54 54 54 54 54 54 54 54 54 54 54 54 53 53 52 52 51 49 48 47 46 46 46 46 45 44 44 43 41 40 39 38 37 35
36 38 40 41 42 43 45 45 46 47 48 48 48 49 49 49 49 49 48 48 48 47 47 46 46 45 45 45 45 45 45 45 45 44 44 44 43 43 42 42 41 41 40 40 40 39 38 38 37 36 35 33
28 29 29 30 31 32 32 33 34 34 35 36 36 37 37 37 37 36 36 35 35 35 34 34 34 34 34 34 34 34 34 35 35 35 36 36 36 37 36 36 36 36 36 36 35 35 34 34 33 32 31 30
24 24 24 24 24 24 24 25 25 25 25 25 25 25 25 25 25 24 25 24 24 24 24 24 24 24 25 25 25 25 25 26 26 27 27 28 28 29 29 30 30 30 31 31 31 30 30 30 29 28 27 27
22 22 22 23 22 22 22 22 22 22 22 22 22 22 22 22 23 23 23 23 24 24 24 24 24 24 24 24 24 24 24 24 23 23 23 23 23 24 24 24 24 25 25 25 25 26 26 26 25 25 25 24
21 21 21 22 22 22 23 23 23 23 24 24 24 25 25 26 26 26 27 27 27 27 27 27 28 28 28 28 28 27 27 27 26 26 25 24 24 24 23 23 23 23 23 23 23 23 23 23 23 23 23 23

ECMWFFLT2_250_rhum_210.txt.gz
RH
60 66 72 77 73 71 68 60 56 58 68 74 69 72 86 97 101 100 96 83 65 49 44 43 43 45 48 52 55 57 61 64 67 68 74 80 79 79 78 78 75 71 69 68 68 70 73 76 78 78 77 72
63 61 60 61 59 56 53 47 45 49 50 45 40 43 53 67 73 69 58 50 47 45 49 51 57 66 65 66 69 68 68 63 60 57 61 67 67 68 67 68 67 66 69 70 71 69 67 67 68 71 73 71
81 81 73 67 67 62 57 51 45 47 49 42 42 47 46 47 50 50 45 45 53 61 71 75 78 90 90 88 87 83 81 77 77 78 79 81 78 78 80 81 80 79 82 84 86 84 81 82 85 88 90 90
92 98 96 85 85 85 82 77 64 54 54 58 65 73 75 69 69 74 71 69 74 81 92 94 87 90 95 98 99 97 94 91 95 98 99 101 98 99 98 90 82 80 84 88 90 91 93 96 98 100 100 98
98 99 100 92 91 95 96 97 92 82 76 81 88 93 96 90 91 98 97 95 97 99 102 101 94 89 86 88 93 98 101 100 103 102 101 103 101 101 100 90 83 80 82 84 84 85 86 87 88 87 84 80
101 101 100 94 88 83 81 85 86 84 84 90 98 104 104 95 95 101 101 98 98 100 102 103 103 101 96 91 89 92 97 101 105 106 104 104 103 101 100 97 94 90 88 84 80 77 74 72 71 68 64 61
100 102 104 101 92 77 65 66 68 67 68 69 75 85 93 96 100 105 105 100 94 93 94 97 101 103 104 101 99 97 97 99 101 103 101 102 102 100 98 95 92 86 81 75 71 68 65 64 62 60 57 55
102 102 105 106 100 89 75 67 68 71 72 68 66 64 67 74 85 98 103 99 93 91 91 94 99 102 104 103 103 102 101 102 100 100 100 99 95 91 88 84 80 76 71 67 65 63 61 61 60 59 55 53
101 100 101 105 100 97 94 90 89 91 91 90 88 83 73 65 67 76 83 79 71 69 70 74 80 88 96 102 104 102 103 105 102 102 102 98 93 88 84 80 78 74 70 67 64 62 61 61 60 56 53 50
103 101 100 103 100 98 98 98 99 101 102 102 101 100 94 86 79 76 76 74 66 60 57 58 61 68 79 92 101 104 105 103 102 103 101 99 95 91 88 85 81 76 70 65 63 63 62 59 55 51 47 45
100 105 103 101 101 103 104 100 95 94 95 97 97 98 99 101 99 96 94 93 90 85 80 74 70 70 73 81 91 99 102 100 99 99 97 96 94 92 88 83 77 72 68 65 64 62 59 53 49 46 42 40
96 103 103 100 99 101 104 103 100 97 96 94 94 94 94 96 96 98 101 102 102 101 99 95 91 89 86 88 92 94 94 93 91 90 88 86 84 82 80 76 73 71 69 66 61 57 52 47 44 41 38 36
93 96 97 99 98 99 99 98 100 100 100 100 100 98 96 95 91 92 94 95 97 97 96 95 95 94 93 93 93 91 88 87 86 83 81 78 76 75 72 71 70 67 65 62 57 53 50 46 42 39 36 34
77 82 87 90 88 91 90 87 89 88 88 93 93 91 92 92 91 92 91 90 91 90 88 87 85 84 82 80 78 79 77 76 76 75 74 73 72 70 68 66 65 63 60 57 55 51 48 45 42 39 36 34
66 70 75 76 74 77 76 72 75 73 71 75 76 74 75 76 78 82 84 85 86 84 82 79 75 71 68 66 63 62 61 61 62 61 63 63 62 62 61 59 58 57 55 52 50 48 46 43 40 38 35 33
66 68 69 68 66 67 65 63 64 63 61 62 64 66 68 68 69 70 70 73 74 73 74 71 66 62 57 56 53 51 51 52 52 53 54 54 54 54 54 53 52 51 50 48 47 45 43 41 38 36 34 32
61 64 65 64 63 63 61 60 60 60 60 61 61 63 66 67 67 66 64 64 64 63 64 61 57 54 49 47 47 46 48 49 49 50 50 50 51 51 50 49 49 48 47 45 44 42 40 38 36 34 33 31
56 58 60 59 59 60 59 58 59 60 60 61 61 62 63 63 64 64 63 62 60 57 56 54 52 50 46 43 43 43 46 48 50 51 51 52 51 50 50 48 47 46 45 44 42 40 38 37 35 34 32 31
53 55 56 56 55 55 54 54 55 56 58 60 60 61 62 63 64 64 65 63 61 58 55 53 51 49 46 43 41 42 43 44 47 50 52 53 53 52 51 49 48 47 45 43 41 39 38 37 35 34 32 31
49 51 52 52 50 49 48 48 50 52 54 57 58 60 61 62 63 63 64 63 61 60 57 55 53 51 49 47 46 46 46 46 46 48 50 52 53 53 52 51 49 47 46 44 42 40 38 37 35 34 33 33
43 47 49 49 47 46 45 46 47 49 51 53 55 57 58 58 59 59 61 63 65 66 66 64 61 58 56 56 55 55 55 55 54 54 54 54 54 54 54 53 51 49 47 45 43 41 39 38 37 36 36 36
36 40 43 44 44 44 45 46 47 49 50 51 52 53 55 55 56 57 60 64 68 72 73 72 70 68 66 64 63 63 63 62 60 59 60 60 60 60 59 57 55 53 50 48 46 44 43 41 41 40 40 39
32 34 36 38 39 41 44 47 49 50 51 51 52 54 55 56 56 57 59 61 63 66 68 69 71 72 72 69 69 69 68 67 64 63 64 65 66 67 67 66 65 62 58 55 52 50 48 46 46 45 44 43
34 34 35 35 36 39 43 48 50 51 52 53 54 55 57 58 57 57 58 58 59 60 62 64 67 69 71 71 72 72 72 73 74 74 74 73 72 71 72 72 72 70 69 67 66 63 60 57 55 53 52 50
37 36 36 36 36 37 41 45 49 51 53 55 55 56 58 59 59 59 60 60 61 63 63 64 65 66 67 69 71 72 73 77 81 85 86 86 83 79 76 74 73 73 74 75 76 75 74 71 69 68 66 65
39 38 37 38 38 39 40 43 45 49 51 54 55 56 57 58 59 59 61 63 64 65 66 67 67 67 66 66 67 68 69 72 77 83 87 89 89 87 85 83 80 78 77 77 77 77 78 78 77 77 77 76
46 46 44 45 44 43 43 43 43 46 48 50 51 51 52 53 54 54 56 58 60 62 64 65 66 66 66 66 65 65 65 67 70 73 76 79 81 83 85 85 85 84 82 81 79 78 78 78 77 77 76 77
54 55 54 53 52 50 49 47 45 45 44 45 44 44 44 44 45 46 48 50 52 54 56 58 60 62 64 64 64 64 64 65 66 67 68 70 71 72 74 75 77 78 78 79 78 77 77 76 75 74 73 73
63 61 58 56 53 50 49 47 45 44 41 39 38 37 37 37 38 39 41 42 44 46 47 50 52 55 57 58 59 60 60 61 62 63 63 64 64 63 64 63 64 65 65 66 67 67 67 67 67 67 68 67
70 65 58 54 49 45 44 42 41 41 39 38 37 36 35 35 35 36 36 37 38 39 40 43 45 46 47 48 49 50 51 52 53 53 54 54 54 54 53 53 52 52 52 51 51 52 52 52 52 52 54 53
81 73 63 57 50 45 43 43 44 43 42 42 40 39 38 38 37 36 36 36 36 36 37 38 39 39 39 39 40 40 40 40 40 41 41 41 41 41 41 41 40 40 40 39 38 39 39 39 39 39 39 38

ECMWFFLT2_250_rhum_216.txt.gz
RH
50 55 62 67 76 92 101 103 104 101 100 100 101 106 100 86 81 82 85 84 78 75 76 81 91 96 89 80 70 58 52 51 49 46 46 49 52 58 65 71 74 76 74 69 61 54 49 41 39 35 30 35
39 48 60 65 70 84 94 98 103 103 101 100 100 103 99 90 90 93 90 85 83 84 86 88 91 94 90 83 74 61 54 50 46 46 45 45 45 46 49 53 59 63 64 61 58 56 48 40 42 39 32 38
29 36 52 67 77 84 86 88 92 98 101 101 101 102 101 101 100 93 84 80 81 84 86 87 87 92 93 86 77 64 54 48 48 50 48 46 44 43 46 50 57 60 63 65 66 59 46 42 44 41 41 48
30 29 35 49 69 84 89 88 86 88 93 99 103 103 103 105 102 92 84 82 83 83 83 84 86 90 90 83 75 64 53 51 57 57 49 46 43 42 45 51 61 69 74 76 71 56 44 43 43 47 52 52
47 40 34 33 43 60 74 83 86 88 89 92 95 99 101 103 104 100 98 96 95 93 90 91 90 88 85 78 71 63 59 63 66 61 52 47 43 41 41 44 53 64 71 70 61 48 45 46 44 49 50 45
74 68 61 53 45 45 50 57 67 77 84 89 90 93 97 101 106 106 105 102 98 95 94 95 91 85 82 77 73 70 68 68 63 54 47 42 39 39 39 40 42 48 54 54 50 45 48 52 48 47 45 42
87 85 84 82 77 70 62 55 53 55 62 71 77 80 83 86 91 93 91 88 85 82 80 80 78 74 71 69 69 66 62 57 49 43 38 35 35 36 36 38 41 43 47 49 50 48 50 53 51 49 47 45
99 91 87 87 89 91 88 80 72 66 61 61 62 63 64 65 66 66 67 67 67 64 61 59 57 55 53 52 52 50 46 43 38 37 37 37 37 39 38 37 42 48 51 51 51 51 49 48 47 49 50 51
111 102 97 94 93 94 93 90 86 81 76 72 69 66 63 61 58 56 54 53 52 50 47 45 42 41 41 41 41 41 40 38 38 38 39 38 37 41 43 41 46 54 58 58 57 57 55 53 53 56 59 64
110 104 100 98 96 94 92 91 88 84 81 77 74 72 69 66 63 60 56 52 49 46 44 42 40 38 38 38 39 40 41 41 40 40 40 38 37 41 46 47 52 58 64 66 66 67 67 66 69 72 72 74
107 106 104 100 95 92 89 88 88 86 83 81 77 73 69 65 62 61 59 57 55 53 50 47 45 42 41 41 43 44 45 46 45 45 44 42 45 49 53 56 59 65 71 76 79 82 84 84 87 89 86 79
104 106 106 103 100 97 92 90 86 83 80 80 78 75 71 66 62 59 57 57 56 56 55 54 52 49 48 48 49 51 53 55 56 58 58 58 62 67 68 69 71 75 79 83 86 87 88 88 89 89 86 80
104 103 102 100 100 100 99 98 93 90 87 86 84 81 78 74 71 68 65 64 61 60 61 60 60 57 56 57 59 63 70 75 78 81 82 83 84 85 82 81 83 84 86 87 88 89 89 87 84 80 77 74
105 102 100 99 100 100 101 101 100 100 99 97 98 95 93 90 87 85 82 80 76 74 74 74 75 76 78 81 84 89 93 96 97 99 100 100 99 98 97 95 95 95 96 96 94 94 93 89 83 76 72 71
104 101 100 100 100 100 101 100 101 103 101 101 104 101 100 100 99 99 97 95 94 92 92 92 92 94 96 99 102 103 103 102 101 102 104 105 103 103 104 104 103 102 103 102 98 98 95 91 86 82 83 82
101 101 100 100 101 100 101 100 101 102 101 103 103 99 99 100 101 100 99 98 98 98 99 100 99 100 101 102 103 103 101 102 102 102 102 104 103 103 105 105 103 103 105 104 102 102 100 100 98 95 98 97
99 102 100 101 102 99 100 101 102 102 102 105 103 102 103 101 103 102 100 100 98 97 98 98 99 100 103 102 102 101 101 103 104 106 106 106 106 104 103 104 103 104 105 104 102 101 99 98 96 93 91 89
100 102 99 100 102 101 102 101 101 101 101 101 102 107 104 97 100 99 101 104 100 99 100 100 101 101 102 103 101 101 102 103 103 105 105 104 104 101 98 98 98 96 95 93 90 89 87 84 82 81 80 79
101 100 100 101 102 102 103 102 102 101 101 102 105 108 102 97 102 100 102 106 101 101 100 100 103 101 101 102 103 103 101 102 103 105 107 105 105 102 97 96 94 90 86 83 81 80 79 78 78 78 78 77
100 100 102 102 102 101 100 101 102 101 104 106 105 105 101 101 104 100 103 105 102 105 103 101 104 101 100 102 106 106 103 106 107 108 108 105 103 99 95 94 92 89 87 84 85 84 82 83 83 81 80 78
98 101 103 103 105 104 101 102 104 105 108 106 104 106 104 102 100 98 100 101 102 106 104 104 107 104 101 103 107 107 104 106 104 103 103 100 98 96 93 91 88 89 89 85 85 85 82 82 81 78 77 75
90 95 98 100 102 100 98 97 97 98 100 98 99 100 93 87 85 86 89 92 97 101 100 103 105 103 102 103 106 107 105 104 100 98 101 99 96 94 92 89 86 85 83 79 77 77 73 72 71 68 67 67
77 79 81 84 85 84 83 81 80 80 82 84 86 85 81 76 73 72 72 74 79 82 86 93 94 96 101 100 98 98 97 96 92 89 90 89 87 87 86 85 83 80 77 74 72 69 65 62 61 59 59 60
71 71 71 71 72 73 72 72 71 70 71 74 76 77 78 75 70 67 64 62 62 63 65 70 72 77 84 83 80 80 81 81 79 77 78 78 77 76 76 75 74 72 71 69 67 64 61 58 57 56 57 59
66 68 67 66 68 68 68 69 69 68 68 68 68 70 71 69 67 64 61 58 56 55 54 55 56 60 65 68 69 72 73 73 74 74 75 75 74 74 72 70 68 66 65 64 64 63 62 61 60 60 61 64
60 61 61 61 63 63 63 64 64 64 63 63 61 60 61 61 61 59 57 54 50 49 49 50 53 54 58 62 64 68 69 69 69 70 69 70 71 71 69 69 68 67 67 67 67 67 67 66 64 64 65 67
55 55 54 55 57 58 59 59 60 59 58 57 56 54 54 54 54 54 53 51 48 45 44 46 49 51 53 56 57 60 62 62 62 62 61 62 63 63 63 65 66 66 66 67 65 65 65 65 66 68 69 70
57 55 52 52 52 53 55 55 56 56 55 54 53 51 50 49 50 50 50 48 46 44 42 43 43 45 47 48 49 50 52 52 52 52 51 51 52 53 53 54 56 56 56 57 58 59 62 63 65 67 66 66
64 64 62 59 57 56 55 55 55 55 54 52 51 50 49 47 47 46 45 44 42 42 44 46 46 47 47 47 47 47 47 47 47 47 47 47 46 46 47 47 48 48 48 50 53 57 62 62 62 61 58 57
65 70 73 74 73 72 69 66 65 64 61 58 57 56 53 51 50 48 47 44 42 42 46 51 54 57 58 58 57 55 54 53 52 52 49 49 49 48 50 50 51 53 54 58 61 64 66 63 61 59 54 51
68 76 82 86 89 90 88 85 83 80 78 77 75 74 72 69 66 63 60 57 56 55 58 61 62 66 68 70 71 68 69 67 64 65 62 59 60 57 58 62 64 66 69 71 70 68 67 64 60 56 50 45